Temp_Advection
nan nan nan nan nan nan nan nan nan nan nan nan nan nan nan nan nan nan nan nan nan nan nan nan nan nan nan nan nan nan nan nan nan nan nan nan nan nan nan nan nan nan nan nan nan nan nan nan nan nan nan nan nan nan nan nan nan nan nan nan nan nan nan nan nan nan nan nan nan
nan -0 -1 -1 -0 -0 0 1 1 1 0 0 0 0 -0 -0 -0 0 1 1 0 0 -0 -0 -0 -0 -0 -0 -0 -0 0 0 0 1 1 0 0 0 -0 -0 -0 -0 -0 0 0 0 0 -0 0 0 0 -0 -0 0 0 0 0 -0 0 0 0 0 0 0 0 0 0 0 nan
nan -0 -0 -1 -0 0 1 1 1 1 0 0 0 0 -0 -0 -0 1 1 1 0 0 -0 -0 -0 -0 -0 -0 -0 -0 -0 -0 -0 0 1 1 0 0 0 0 -0 -0 -0 -0 0 0 0 0 0 0 0 -0 -0 -0 0 0 0 -0 -0 0 0 0 0 0 0 0 0 0 nan
nan -0 -0 -0 -0 0 1 1 1 0 0 -0 0 -0 -0 -0 0 1 1 1 0 -0 -0 -1 -0 -0 -0 -0 -0 -0 -0 -1 -1 -0 0 0 1 1 1 0 0 -0 -0 -0 -0 0 0 0 0 0 0 -0 -0 0 0 -0 -0 -0 -0 0 0 0 0 0 -0 -0 0 0 nan
nan -0 -0 -0 -0 0 0 1 0 0 -0 -0 -0 -0 0 0 0 0 0 0 -0 -1 -1 -0 0 0 -0 -0 -0 -0 -0 -1 -1 -1 -0 0 0 1 1 0 0 0 -0 -0 -0 -0 0 0 0 0 -0 -0 -0 -0 -0 -0 -0 0 0 0 -0 0 0 0 -0 -0 -0 0 nan
nan -0 -0 -0 0 0 0 1 1 0 -0 -0 -0 0 0 0 0 0 0 -0 -1 -1 -0 1 1 0 -0 -0 -0 -0 -0 -0 -0 -0 -0 0 0 0 0 0 0 0 0 0 -0 -0 -0 0 0 -0 -0 -0 -0 0 -0 -0 0 0 0 0 -0 -0 0 0 0 -0 -0 -0 nan
nan -0 0 0 0 0 0 1 0 0 -0 -0 0 1 1 1 0 0 -0 -0 0 1 1 1 1 0 -0 -1 -0 -0 -0 0 0 0 0 0 0 -0 -0 0 0 0 0 0 0 0 -0 0 0 -0 -0 0 0 0 0 -0 -0 -0 0 0 -0 -0 -0 0 0 -0 -0 -0 nan
nan 0 0 0 0 0 1 1 1 0 0 1 1 1 1 1 0 -0 -0 1 1 1 1 0 -0 -0 -1 -1 -1 -0 -0 0 1 1 0 0 -0 -0 -0 -0 -0 0 0 0 0 0 0 0 0 0 0 0 0 0 -0 -0 -0 -0 0 0 0 -0 -0 -0 -0 -0 -0 -0 nan
nan 0 0 0 1 1 1 1 1 1 1 1 2 1 1 0 0 -0 0 1 1 1 0 -0 -0 -0 -0 -0 -0 -0 0 1 1 1 0 -0 -0 -0 -0 -0 -0 -0 -0 -0 0 0 0 0 0 0 0 0 1 0 -0 0 1 0 -0 -0 0 -0 -0 -1 -0 -0 0 0 nan
nan 1 1 1 1 1 1 2 2 2 2 2 2 1 1 -0 -0 -0 0 1 0 0 -0 -0 -0 -0 -0 -0 -0 0 1 1 1 0 -0 -0 -0 -0 -0 -0 -0 -0 -0 -0 -0 0 0 0 0 0 0 0 1 1 0 0 0 0 -0 -0 -0 -0 -1 -1 -0 0 0 0 nan
nan 1 1 2 2 2 2 2 2 2 2 2 1 1 -0 -0 -0 -0 0 0 0 -0 -0 -0 -0 -0 0 0 0 1 1 0 0 -0 -0 -0 -0 -0 -0 -0 -0 -0 -0 -0 -0 0 0 0 0 1 1 1 1 1 1 0 -0 -0 -0 -1 -0 -0 -0 -0 0 0 0 0 nan
nan 1 1 1 1 2 2 2 2 1 1 1 1 -0 -1 -1 -0 0 0 0 -0 -0 -0 0 0 0 0 1 1 0 0 -0 -0 -0 -0 -0 -0 -0 -0 -0 -0 -0 0 0 0 0 0 0 0 1 1 1 1 1 0 0 0 -0 -1 -0 -0 -0 0 0 0 0 0 0 nan
nan 0 0 0 1 1 0 0 0 0 0 0 -0 -0 -0 0 1 1 1 0 -0 -0 0 0 0 0 0 0 0 0 -0 -0 -0 -0 -0 -0 -0 0 0 -0 -0 -0 0 0 0 0 0 0 0 1 1 1 1 1 0 -0 -0 -0 -0 -0 -0 -0 0 0 0 0 1 0 nan
nan -0 -0 -0 -0 -0 -0 -0 -0 -0 -0 -0 0 1 1 1 2 2 1 0 -0 0 1 1 1 0 0 -0 -0 -0 -0 -0 -0 -0 -0 -0 0 0 0 0 0 0 0 0 0 0 0 -0 0 0 1 1 1 0 -0 -0 -0 -0 -0 -0 -0 -0 0 0 0 0 0 0 nan
nan -0 -0 -0 -1 -1 -1 -1 -0 -0 -0 1 1 1 1 1 2 1 0 -0 -0 1 2 2 0 -0 -1 -0 -0 -0 -0 -0 -0 -0 -0 0 0 0 0 0 0 0 0 1 1 1 0 -0 -0 -0 0 1 0 0 -0 -0 -0 -0 -0 -0 -0 0 0 0 1 0 0 -0 nan
nan -0 -0 -0 -1 -1 -0 -0 -0 0 1 1 1 1 1 1 1 0 -0 -0 -0 1 2 1 -0 -1 -1 -0 -0 -0 -0 -0 -0 -0 0 0 -0 -0 0 0 0 0 0 0 1 1 0 0 -0 -0 -0 -0 -0 -0 -0 -0 -0 -0 -0 -0 -0 0 1 1 1 0 -0 -0 nan
nan 1 0 0 0 0 0 0 1 1 1 1 0 0 0 0 0 -0 -0 -0 -0 1 1 1 -1 -1 -1 -0 -0 -0 -0 -0 -0 0 0 -0 -0 -0 -0 -0 -0 0 0 0 1 1 0 0 0 0 -0 -0 -0 -0 -0 -0 -0 -0 -0 -0 0 0 0 0 0 -0 -0 -0 nan
nan 1 1 1 1 1 1 1 1 1 1 0 0 0 0 0 0 0 -0 -0 0 1 1 0 -1 -1 -0 -0 -0 -0 -0 0 0 -0 -0 -0 -0 0 0 -0 -0 -0 0 0 0 1 0 0 0 0 0 -0 -0 -0 -0 -0 -0 -0 0 0 -0 -0 -0 0 0 -0 -0 -0 nan
nan 1 1 1 1 1 1 1 0 0 0 0 0 0 0 0 0 0 0 0 0 0 0 -0 -0 -0 -0 -0 -0 -0 -0 -0 -0 -0 -0 -0 0 0 0 0 -0 -0 0 0 0 0 0 1 1 0 0 -0 0 0 0 0 0 0 0 -0 -0 -0 -0 0 0 -0 -0 -0 nan
nan 0 0 1 1 1 1 1 1 1 0 0 0 0 0 0 0 0 0 -0 -0 -0 0 0 -0 -0 -0 -0 -0 -0 -0 -0 -0 -0 -0 0 0 0 0 0 0 0 0 0 0 0 0 0 1 0 0 0 -0 -0 0 0 0 0 -0 -0 -0 -0 -0 0 0 0 1 1 nan
nan 0 0 0 0 0 1 1 1 1 0 0 0 0 0 0 0 -0 -0 -0 -0 0 0 0 0 -0 -0 -0 -0 -0 -0 -0 -0 -0 0 0 0 0 0 0 0 0 0 0 0 0 0 0 1 1 0 0 -0 -0 0 0 0 -0 -0 -0 0 0 0 1 1 1 1 1 nan
nan 0 0 0 0 0 0 0 0 0 0 0 0 -0 -0 -0 -0 -0 -0 -0 0 0 0 0 0 -0 -0 -0 -0 -0 -0 -0 -0 -0 0 0 0 0 0 0 0 0 0 0 0 0 0 0 1 0 0 -0 -0 0 0 0 0 -0 -0 -0 0 1 1 2 2 1 1 -0 nan
nan 0 0 0 0 0 0 0 0 0 0 -0 -0 -0 -0 -0 -0 -0 0 0 0 0 0 0 -0 -0 -0 -0 -0 -0 -0 -0 -0 -0 -0 0 0 0 0 0 0 0 0 0 0 0 0 0 0 0 0 -0 -0 0 0 0 0 0 0 0 1 2 2 2 1 0 -0 -0 nan
nan 0 0 0 0 0 0 0 0 0 0 -0 -0 -0 -0 -0 0 0 0 0 0 0 -0 -0 -0 -0 -0 -0 -0 -0 -0 -0 -0 -0 0 0 0 1 0 0 0 0 0 0 0 0 0 0 0 0 -0 -0 -0 -0 0 1 1 1 1 1 1 2 2 1 0 -0 -0 0 nan
nan 0 0 0 0 0 1 1 1 0 0 -0 -0 0 0 0 0 0 0 0 -0 -0 -0 -0 -0 -0 0 0 -0 -0 -0 -0 -0 0 0 1 1 0 0 0 0 0 0 0 0 0 0 -0 -0 0 0 -0 -0 0 1 1 1 1 1 1 1 1 0 -0 -0 -0 0 0 nan
nan 0 0 0 0 0 0 0 0 0 -0 0 0 0 0 0 0 0 -0 -0 -0 -0 -0 -0 -0 -0 0 -0 -0 -0 -0 -0 -0 0 0 0 0 0 0 0 0 0 0 0 0 0 0 0 0 0 0 0 0 1 1 1 1 1 1 1 0 0 -0 -0 -0 0 0 1 nan
nan 0 0 0 0 0 0 -0 -0 -0 -0 -0 -0 0 -0 -0 -0 -0 -0 -0 -0 -0 -0 -0 -0 -0 -0 -0 -0 -0 -0 -0 -0 0 0 0 0 0 0 0 0 0 -0 0 0 1 1 1 1 1 0 0 0 1 1 1 1 1 0 0 0 0 -0 -0 0 0 1 0 nan
nan 0 0 0 0 0 0 -0 -0 -0 -0 0 0 -0 -0 -0 -0 -0 -0 -0 -0 -0 -0 -0 -0 -0 -0 -0 -0 -0 -0 -0 -0 0 0 0 0 0 0 0 0 -0 -0 0 1 1 1 1 1 0 0 0 0 1 1 1 1 0 0 0 0 0 -0 0 0 0 0 0 nan
nan 0 0 0 0 0 0 0 0 0 0 0 0 0 -0 -0 -0 -0 -0 -0 -0 -0 -0 -0 -0 -0 -0 -0 -0 -0 -0 -0 -0 0 0 0 0 0 0 0 -0 -0 0 1 1 1 1 1 0 0 -0 -0 0 1 1 1 1 0 0 0 0 0 0 0 0 0 0 0 nan
nan 0 -0 -0 0 0 0 0 0 0 0 0 0 0 0 -0 0 0 0 0 0 0 0 0 -0 -0 -0 -0 -0 -0 -0 0 0 0 0 0 1 1 0 -0 0 0 0 1 1 1 1 0 0 0 -0 0 0 0 1 1 0 0 0 0 0 0 0 0 1 1 1 0 nan
nan 0 0 0 0 0 0 0 0 0 0 0 0 0 0 0 0 0 0 0 0 0 0 0 0 0 0 0 0 0 0 0 0 0 1 0 0 0 0 0 0 1 1 1 1 1 1 0 0 0 0 0 0 1 1 0 0 0 0 0 0 0 0 1 1 1 1 0 nan
nan 0 0 0 0 0 0 0 0 0 0 0 0 0 0 0 0 0 0 0 0 0 0 0 0 0 1 1 1 1 1 1 1 1 1 1 1 1 1 1 1 1 0 0 1 1 1 0 0 0 0 0 0 0 0 0 0 0 0 0 0 0 0 0 0 0 0 0 nan
nan 0 0 0 1 1 1 1 1 0 0 0 0 0 0 0 0 0 0 0 0 0 1 1 1 1 1 1 1 1 1 1 1 1 1 1 1 1 1 1 1 1 0 0 1 1 1 0 0 0 0 0 0 0 0 0 0 0 0 0 0 0 0 0 0 0 0 0 nan
nan 0 0 0 0 0 0 0 0 0 0 0 0 0 0 0 0 0 0 0 0 0 1 1 1 1 1 1 1 1 1 1 1 1 1 1 1 1 1 1 1 0 0 1 1 0 0 0 0 0 0 0 0 0 0 0 0 0 1 1 1 1 0 0 -0 0 0 0 nan
nan 0 0 0 0 0 0 0 0 0 0 0 0 0 0 0 0 0 0 0 0 0 1 1 1 1 1 1 1 1 1 1 1 1 1 1 1 0 0 0 0 0 0 0 0 0 0 0 0 0 0 0 0 0 0 0 0 0 1 1 1 0 -0 -0 -0 0 0 0 nan
nan -0 0 0 0 0 0 0 0 0 0 0 0 0 0 0 0 0 0 0 0 0 0 0 1 1 1 1 1 1 1 0 0 0 0 0 0 0 0 0 0 0 0 0 0 0 0 0 0 0 0 0 0 0 0 0 0 0 0 1 0 0 -0 -0 -0 0 0 0 nan
nan -0 0 0 0 0 0 0 0 0 0 0 0 0 0 0 0 0 0 0 0 0 0 0 0 0 0 0 0 0 0 0 0 0 0 0 0 0 0 0 0 0 0 -0 -0 -0 0 0 0 0 0 0 0 0 0 0 0 0 0 0 0 0 0 0 0 0 0 -0 nan
nan 0 0 0 0 0 0 0 0 0 0 0 0 0 0 0 0 0 0 0 0 0 0 0 0 0 0 0 0 0 0 0 0 0 0 0 0 0 0 0 0 0 -0 -0 -0 -0 0 0 0 0 0 0 0 0 0 0 0 0 0 0 0 0 0 0 0 -0 -0 -0 nan
nan 0 0 0 0 0 0 0 0 0 0 0 0 0 0 0 -0 -0 -0 0 0 0 0 0 0 0 0 0 0 -0 -0 0 0 0 0 0 0 0 0 0 0 0 0 -0 -0 -0 0 0 0 0 0 0 0 0 0 0 0 0 0 0 0 0 0 -0 -0 -0 -0 -0 nan
nan 0 0 0 -0 -0 -0 0 0 0 0 0 0 0 0 0 0 0 -0 0 0 0 0 0 0 0 0 0 0 0 0 0 0 0 0 0 0 0 0 0 0 0 0 0 0 0 0 0 0 0 0 0 0 0 0 0 0 0 0 0 0 -0 -0 -0 -0 -0 -0 0 nan
nan nan nan nan nan nan nan nan nan nan nan nan nan nan nan nan nan nan nan nan nan nan nan nan nan nan nan nan nan nan nan nan nan nan nan nan nan nan nan nan nan nan nan nan nan nan nan nan nan nan nan nan nan nan nan nan nan nan nan nan nan nan nan nan nan nan nan nan nan
Wind_Speed
32 30 28 27 27 27 26 25 23 20 17 15 13 13 13 13 15 15 14 13 13 13 14 14 15 15 15 16 16 16 15 14 14 13 12 11 10 10 11 11 9 8 8 9 11 12 12 12 9 9 10 11 11 11 10 8 8 7 7 8 9 10 12 13 14 15 16 17 18
33 32 30 29 28 28 28 27 25 22 20 17 14 14 14 15 16 16 15 14 14 14 15 15 16 17 17 17 17 17 17 16 16 15 14 13 12 12 12 13 12 11 10 9 10 12 14 13 12 12 12 13 13 13 12 11 9 9 9 9 10 11 12 12 13 14 14 16 17
31 31 31 30 29 28 28 27 25 23 21 19 17 16 15 16 17 17 16 16 16 16 16 17 17 18 18 18 19 18 18 17 17 16 16 15 14 14 13 13 13 12 11 10 9 10 12 13 13 13 13 13 13 14 14 12 11 10 11 11 11 12 13 14 15 15 15 16 17
28 29 29 29 29 28 28 26 25 23 22 21 20 18 17 17 17 18 18 18 17 17 18 18 19 19 20 20 20 19 18 17 17 16 17 16 16 15 14 14 14 13 13 12 10 9 10 11 12 12 12 13 13 14 14 13 12 12 12 12 12 13 14 15 17 18 18 18 17
24 26 27 27 28 28 28 27 25 24 23 23 22 21 19 19 19 19 19 19 19 18 18 19 20 21 22 21 20 20 19 18 17 17 16 17 16 16 16 15 15 14 14 13 12 10 10 10 12 12 13 14 15 15 15 14 14 15 15 14 13 13 14 16 18 19 20 20 19
22 23 24 25 26 27 28 28 27 26 25 25 24 23 21 20 19 20 20 20 20 19 19 20 22 23 24 23 22 21 20 19 18 17 16 16 16 16 16 16 16 16 16 15 14 12 11 11 12 13 14 15 16 16 15 15 16 17 18 16 14 13 14 16 18 19 20 20 19
20 21 22 23 25 27 28 29 29 28 27 26 25 23 21 19 19 20 21 22 22 21 22 23 23 24 24 23 22 22 21 20 19 18 16 16 16 16 16 17 17 17 17 16 16 15 13 13 13 14 15 16 17 17 16 15 17 19 19 17 14 14 15 16 17 19 19 18 17
19 20 21 23 25 27 28 30 30 29 28 27 25 23 21 18 18 19 21 23 24 24 24 24 24 23 23 22 22 22 21 21 20 18 17 16 15 15 16 16 17 17 17 17 17 16 15 15 14 15 16 17 17 17 16 16 18 20 20 18 16 15 15 16 18 19 19 17 16
18 19 21 22 24 26 28 30 30 30 29 27 25 23 21 19 18 19 21 23 25 25 25 24 24 23 22 21 21 21 21 21 20 19 17 16 15 15 15 16 16 17 17 17 17 16 16 16 16 16 17 18 18 18 17 16 18 19 20 20 18 17 17 17 19 20 19 18 17
16 18 20 22 24 26 27 29 29 29 29 27 25 23 21 20 19 20 21 23 24 25 25 24 23 22 22 22 22 22 22 21 20 19 17 16 15 15 15 15 15 16 16 16 16 16 16 16 16 17 18 19 20 19 18 16 17 18 20 21 21 20 19 19 19 19 18 17 17
14 16 18 20 22 23 25 26 27 27 27 26 25 23 22 21 21 22 22 23 23 24 24 24 23 23 23 24 24 23 22 21 19 18 16 16 15 15 14 14 14 15 14 14 14 14 14 15 16 18 20 20 21 20 19 17 17 19 21 22 22 21 20 19 18 18 17 17 17
11 13 15 16 17 19 20 21 23 24 24 24 23 23 23 23 23 24 23 23 22 23 23 23 24 24 24 24 23 22 21 19 18 17 16 15 14 13 13 13 13 14 14 13 12 12 12 13 16 18 20 21 21 20 19 17 18 19 21 22 22 21 20 19 18 17 17 17 16
8 10 11 12 14 15 16 17 18 20 21 22 23 24 24 25 25 25 24 23 23 23 23 24 24 23 23 22 21 20 19 18 17 16 16 15 13 12 11 12 12 13 13 12 11 10 10 11 13 16 19 20 21 20 18 17 17 19 21 22 21 21 20 19 18 18 18 18 17
7 9 10 12 12 14 15 15 16 17 20 22 24 25 26 25 25 24 24 23 24 24 25 24 23 22 21 20 19 19 18 17 17 16 15 14 12 11 11 11 11 12 12 12 11 10 9 9 11 13 16 18 19 18 16 16 17 19 20 22 21 20 19 18 17 17 17 17 17
9 9 10 11 12 13 14 15 16 18 21 23 24 24 24 24 23 22 22 22 24 25 25 22 20 19 18 18 17 17 17 16 16 16 15 13 12 11 11 11 11 11 12 12 11 10 9 9 9 11 13 15 16 16 16 16 17 18 20 21 21 21 20 18 17 17 17 17 18
12 13 13 13 14 15 16 17 18 20 21 22 22 21 21 21 21 20 20 20 22 24 23 20 17 16 16 15 15 15 15 15 15 14 13 13 12 12 11 11 11 11 12 12 12 11 10 9 9 10 12 13 15 15 16 17 17 18 20 21 21 22 21 19 18 17 18 19 19
14 15 15 16 17 18 18 19 20 20 20 20 19 19 19 19 19 19 19 19 20 20 20 18 15 14 13 13 13 13 13 13 13 13 12 12 12 12 12 12 11 11 12 12 13 13 12 11 10 10 11 12 14 15 17 17 18 19 19 20 21 21 20 19 19 19 20 21 21
12 13 14 15 16 17 17 17 17 17 17 17 17 17 17 17 17 17 17 17 17 17 16 15 13 12 12 13 13 13 13 13 13 12 12 12 12 12 12 12 12 12 12 12 13 13 13 12 12 11 11 12 13 15 16 18 18 19 19 20 20 19 19 19 20 21 22 23 23
9 9 10 11 11 12 12 13 13 13 13 13 14 14 14 14 15 16 16 16 16 16 15 14 13 12 12 13 13 13 13 12 13 12 12 12 12 12 12 12 12 12 12 12 12 13 13 13 13 12 12 12 13 14 16 17 18 19 19 19 18 18 18 19 21 22 24 24 24
7 8 8 9 9 9 9 9 10 10 10 11 11 11 11 12 13 14 15 15 15 15 16 16 15 13 12 12 12 12 12 12 12 12 12 12 12 11 11 11 11 11 11 12 12 13 13 13 13 13 13 13 14 14 15 16 17 18 18 18 18 19 20 21 22 23 24 23 23
7 6 7 7 8 8 9 9 10 10 11 11 11 11 10 11 11 12 13 14 14 15 16 17 16 13 12 11 11 11 12 12 12 12 12 12 12 11 11 11 11 11 11 11 12 13 13 13 14 14 14 13 14 14 15 16 17 17 18 19 19 20 21 21 22 23 22 21 20
7 7 7 7 7 7 8 9 9 10 11 11 12 11 12 12 12 13 13 13 13 14 15 15 13 11 10 10 10 11 11 11 12 12 12 12 12 11 11 11 11 11 11 11 12 12 13 13 14 14 14 13 14 14 15 16 17 18 19 19 20 21 21 21 21 20 19 19 19
9 9 9 9 9 9 9 9 10 10 11 11 12 13 14 14 15 15 15 15 14 13 13 12 12 11 10 10 10 10 10 11 11 12 12 12 11 11 11 10 11 11 11 11 11 12 12 13 14 14 14 14 14 15 15 16 17 18 19 20 21 21 21 20 19 18 17 17 17
10 11 12 13 13 12 12 12 12 12 12 13 14 14 15 15 15 15 16 15 14 13 12 12 12 12 12 11 10 10 10 11 11 11 12 12 11 10 10 10 10 11 11 11 11 11 12 12 13 14 14 14 15 15 16 16 17 18 18 19 19 18 18 17 16 15 15 15 16
10 12 12 13 13 14 14 14 14 14 14 15 15 15 14 13 13 13 14 14 13 12 11 11 12 12 11 10 9 9 9 10 10 11 10 10 10 9 9 9 10 11 11 11 11 11 11 12 12 14 14 15 15 16 16 17 17 17 16 16 16 15 15 14 14 14 14 14 14
9 10 10 10 10 10 10 10 10 10 11 11 11 10 10 9 10 11 11 11 11 11 10 10 10 9 8 8 7 8 8 8 9 9 9 9 8 8 8 9 10 10 11 11 11 11 11 11 12 13 14 15 16 16 17 17 16 16 15 14 14 14 13 13 13 13 13 13 13
5 6 7 7 6 4 3 3 3 3 4 5 6 6 7 8 9 10 10 10 9 8 8 8 7 6 6 6 6 6 6 7 8 8 9 8 8 8 8 9 10 10 11 11 12 12 12 12 12 13 13 14 15 16 16 16 15 14 13 13 12 12 12 12 12 12 11 11 11
3 4 4 4 4 3 2 2 2 3 4 5 6 8 9 10 10 10 9 8 7 6 6 5 5 5 5 5 5 5 5 6 7 8 9 9 9 8 9 10 10 11 11 12 12 12 12 12 12 13 13 14 15 15 14 12 11 10 10 10 9 9 9 9 9 9 9 9 9
3 3 3 4 4 4 4 4 4 5 5 6 6 7 7 7 7 6 6 5 5 4 4 4 4 4 5 4 4 5 6 6 7 8 8 9 9 9 10 10 11 12 12 12 13 12 12 12 12 12 12 13 14 13 12 9 7 6 6 6 7 7 7 7 7 8 8 8 8
4 4 3 4 4 5 5 5 6 6 6 6 6 5 5 5 5 5 4 4 4 4 4 4 4 4 4 4 4 4 5 6 7 8 8 9 9 9 10 11 11 12 12 12 12 12 11 10 10 10 10 11 11 11 10 7 5 4 5 6 6 6 7 7 7 7 8 8 8
5 5 4 4 5 5 6 6 7 7 7 6 6 5 5 5 5 5 5 5 5 5 5 5 4 4 4 4 4 5 5 6 7 8 9 9 10 11 11 11 11 11 12 12 12 11 10 9 8 8 8 8 8 8 7 6 5 5 5 6 6 7 7 7 7 7 7 7 7
4 5 5 5 5 6 6 7 7 7 7 6 6 5 5 5 5 5 5 6 6 6 6 6 5 5 5 6 6 7 7 8 9 9 10 10 10 10 11 10 10 10 11 11 11 10 9 8 8 7 7 7 6 6 6 6 6 6 6 6 7 7 7 7 7 7 7 7 6
4 4 4 5 5 6 6 7 7 7 7 6 5 5 4 4 5 5 5 6 6 6 6 6 6 7 7 7 8 8 9 9 9 9 9 9 9 10 10 10 10 10 10 10 10 9 8 8 7 7 7 6 6 6 6 7 7 7 7 7 7 7 7 7 7 7 6 6 6
4 4 4 5 6 6 6 7 7 6 6 5 5 4 4 4 5 5 6 6 6 6 6 6 7 7 7 8 8 8 9 9 9 9 8 8 8 8 9 9 8 8 9 9 9 9 8 8 7 7 7 6 6 7 7 7 8 8 8 8 8 8 8 7 7 7 6 6 6
4 3 4 4 5 6 6 6 6 6 5 5 5 5 5 5 6 6 6 6 6 7 8 8 8 8 8 8 8 8 8 9 9 8 8 7 7 7 7 7 7 7 7 8 8 7 7 7 7 7 6 6 7 7 7 7 7 8 8 8 8 8 8 8 8 7 7 6 6
4 3 3 4 5 6 6 6 6 6 6 6 6 6 7 7 7 7 7 7 7 8 9 9 9 9 9 9 9 8 8 8 8 8 7 6 6 6 5 5 5 6 6 6 6 6 6 6 6 6 6 6 6 6 7 7 7 7 7 8 8 8 8 9 8 8 7 6 6
4 3 3 4 5 6 7 7 7 7 8 7 7 7 8 8 8 8 8 7 8 9 9 9 9 9 9 9 9 9 8 8 7 7 6 5 5 4 4 4 5 5 5 5 5 5 5 5 5 5 5 6 6 6 6 6 7 7 8 8 9 9 9 9 8 7 7 6 6
5 4 4 5 6 7 8 8 9 9 9 9 8 7 7 8 9 9 9 8 8 8 9 9 9 9 9 9 9 8 8 7 6 6 5 5 4 4 4 4 4 4 4 4 4 5 5 4 4 5 5 5 6 6 6 7 7 8 9 9 9 9 9 8 8 7 7 6 6
6 5 5 5 6 7 8 9 10 10 10 9 8 7 7 8 8 9 9 8 7 7 8 9 9 9 8 7 7 6 6 6 6 5 5 5 4 3 3 3 4 4 4 3 4 4 4 4 4 4 5 5 6 6 7 7 8 8 9 9 9 9 9 8 8 7 7 7 6
6 6 6 6 6 7 8 9 10 10 9 9 8 7 7 8 8 9 9 8 8 7 7 8 8 8 7 6 5 4 5 5 5 5 4 4 5 4 3 3 3 3 2 2 3 3 3 3 4 5 5 5 6 6 6 7 7 8 8 9 9 9 8 8 7 7 7 6 6
7 7 6 6 6 7 7 8 9 9 9 9 8 8 7 7 8 8 9 9 8 7 7 7 7 7 6 5 4 3 4 4 4 4 4 5 5 5 4 3 3 3 2 1 1 2 2 3 4 5 6 6 6 6 6 6 6 7 7 8 8 8 8 8 7 6 6 6 6
Wind_Direction
225 224 221 219 216 215 216 219 223 226 226 221 210 202 204 214 218 218 220 227 237 245 251 256 259 263 265 266 265 264 265 268 274 281 287 290 291 291 290 290 288 279 261 243 231 225 226 232 230 228 235 247 246 238 230 230 238 248 254 256 253 248 244 242 242 242 241 238 231
231 230 228 225 222 219 219 221 226 231 233 232 223 213 212 219 223 225 227 234 242 247 250 254 258 261 262 262 263 264 265 268 274 279 283 286 288 288 289 291 292 291 285 270 249 235 229 229 227 224 226 238 243 238 229 225 233 244 252 255 255 253 251 249 248 248 246 242 236
235 235 234 231 228 226 224 226 230 235 238 239 233 226 221 223 227 232 238 244 247 250 253 256 259 262 262 262 262 262 263 267 271 276 279 282 284 286 287 288 289 290 290 286 272 250 235 229 228 228 230 236 245 245 239 235 241 250 257 259 259 258 257 256 255 254 252 249 244
236 237 237 236 233 231 230 231 234 237 240 240 237 232 228 228 231 237 243 247 251 254 257 261 264 265 265 263 262 262 263 265 268 271 274 277 279 281 282 283 284 285 286 286 282 266 246 233 229 229 232 237 243 248 249 250 253 256 259 261 263 264 264 262 259 256 253 251 248
235 235 236 236 235 234 233 233 235 237 238 237 236 233 231 230 232 236 241 245 248 251 254 259 265 268 268 266 264 263 264 265 266 267 269 271 274 276 277 278 280 281 282 283 282 275 259 243 233 229 232 237 241 243 247 251 254 255 255 256 260 265 267 266 261 256 252 248 246
233 232 232 233 233 233 233 233 234 234 235 234 233 231 230 230 231 234 238 241 242 241 243 248 256 262 265 266 265 265 265 265 265 265 265 267 268 271 274 277 279 280 281 280 280 277 269 255 241 234 236 242 244 243 244 250 255 255 252 250 254 261 267 267 264 259 253 248 245
233 230 228 228 228 229 230 231 232 232 232 232 231 229 229 230 232 234 236 237 238 239 241 244 248 253 257 260 261 262 263 264 264 264 263 263 265 267 271 274 276 278 278 278 277 276 271 262 248 239 239 247 252 249 245 250 257 258 253 248 252 260 266 268 266 261 255 250 249
230 227 225 223 224 225 226 228 229 230 230 229 228 227 229 233 237 237 235 235 237 240 242 244 245 247 250 252 254 256 258 260 262 262 262 262 263 265 268 271 273 274 274 275 274 273 270 264 253 243 240 246 255 256 251 250 255 259 259 258 260 265 268 269 266 261 256 253 255
224 222 220 220 220 221 223 225 226 227 226 226 225 225 228 234 241 241 237 233 232 234 237 240 242 243 245 246 248 250 253 256 258 260 261 262 264 267 269 270 272 273 273 273 272 270 267 262 253 245 241 244 253 259 260 253 250 254 260 263 266 268 270 269 266 261 256 253 255
220 218 217 217 217 219 220 222 223 223 223 222 222 223 227 232 238 239 237 232 228 228 230 233 235 237 240 242 244 246 248 251 253 256 259 263 266 270 272 273 274 274 274 274 273 270 266 259 251 245 241 242 248 257 262 256 249 250 256 259 262 264 266 265 264 262 257 252 251
217 215 215 215 216 217 218 218 219 219 219 219 219 222 225 229 232 233 233 230 227 225 225 226 228 231 234 237 239 242 244 246 250 254 259 265 270 273 276 278 278 277 276 275 274 270 264 257 249 243 240 240 244 251 258 260 255 254 255 255 257 258 259 260 261 260 256 251 247
214 213 213 213 213 214 214 215 215 215 215 215 217 220 223 225 226 226 226 226 225 224 224 224 225 228 231 234 237 239 242 245 249 255 261 266 271 276 281 283 284 282 279 277 274 270 262 254 247 242 239 239 241 246 253 261 263 262 259 255 253 253 254 256 257 257 254 250 247
215 211 208 205 206 207 208 211 211 211 212 213 215 217 217 217 218 218 218 220 222 224 224 225 226 228 231 234 237 241 244 248 252 257 261 266 271 277 284 288 289 287 284 280 277 272 264 255 247 243 241 241 241 245 252 262 268 268 263 255 250 248 250 252 254 255 253 251 250
215 211 206 202 203 204 206 210 211 212 212 213 212 211 210 211 212 212 213 216 220 223 225 226 227 230 233 237 241 245 249 252 255 258 261 264 270 277 284 289 290 288 285 281 278 274 270 263 255 249 245 244 244 249 257 266 271 270 264 255 250 247 248 250 254 256 256 256 257
209 207 205 205 207 208 210 212 213 214 213 211 210 210 210 211 212 214 215 216 219 223 226 228 230 233 236 240 244 249 252 255 256 258 260 264 270 277 284 288 288 286 282 277 272 268 266 267 265 259 253 250 250 255 263 269 272 271 266 259 253 249 248 251 256 261 264 264 264
202 201 202 205 206 208 209 210 211 211 211 211 212 213 215 216 218 219 220 220 222 224 228 231 234 235 238 241 245 249 253 255 256 258 261 266 272 279 284 287 287 284 279 273 266 259 256 259 263 265 262 258 258 261 265 269 271 270 266 261 256 253 253 257 263 267 270 271 268
194 193 195 198 200 201 203 205 207 209 211 214 217 219 221 221 222 224 225 226 226 228 230 234 236 237 238 241 245 248 252 254 256 258 261 266 272 278 283 285 286 284 279 272 264 256 252 251 255 261 265 264 263 263 264 266 267 266 264 261 259 259 260 264 269 272 273 273 270
182 183 186 191 194 198 201 204 208 211 215 218 221 223 224 225 226 228 230 231 232 233 234 235 236 236 237 240 245 248 251 253 255 257 260 264 270 276 280 283 284 283 280 273 265 258 253 252 253 257 262 265 265 264 263 263 264 263 262 261 263 264 267 269 271 272 271 269 268
168 169 173 178 185 192 198 202 205 209 212 215 218 221 224 227 229 232 235 237 238 240 242 241 240 238 238 241 246 250 253 255 256 257 259 263 268 273 277 280 282 282 279 274 269 263 259 257 257 258 260 264 266 265 263 262 261 261 261 263 265 267 268 268 267 266 264 261 260
161 162 161 163 168 173 178 182 187 194 200 207 212 217 221 225 229 233 237 240 242 245 246 246 245 244 244 245 248 252 255 256 257 257 259 262 267 271 273 276 278 278 277 275 272 269 267 265 263 262 263 265 266 265 263 261 261 261 261 263 264 265 265 263 260 257 253 251 250
172 172 169 166 164 165 167 172 181 190 199 206 211 216 220 225 230 235 240 244 247 247 247 247 248 249 250 250 251 252 254 256 256 257 259 262 265 268 271 272 273 274 275 276 276 276 274 272 270 268 266 265 264 262 260 258 258 259 261 261 261 261 259 255 251 246 243 243 245
193 196 197 194 188 184 185 190 197 203 208 214 221 227 232 237 242 247 252 256 257 255 252 251 255 256 255 252 249 248 250 253 254 256 258 261 264 266 268 270 272 273 275 277 279 279 278 275 273 270 266 262 257 255 254 254 254 256 257 257 255 253 249 245 240 237 237 240 244
205 207 212 214 215 215 216 219 222 226 229 234 239 243 247 250 254 258 261 263 264 263 262 262 264 263 259 253 248 245 245 247 251 254 257 259 262 264 266 269 272 275 277 279 279 279 277 275 272 268 262 254 248 247 248 249 249 250 250 249 247 243 239 234 231 232 235 239 242
209 212 216 220 222 225 228 232 235 239 242 245 248 251 253 256 259 261 263 264 265 266 266 265 264 262 260 255 250 246 244 244 247 251 255 257 259 262 266 269 273 276 277 277 275 273 272 270 268 264 256 248 242 241 242 243 242 242 241 239 237 234 230 227 227 230 233 236 237
218 222 224 227 229 231 234 237 240 242 244 245 247 250 252 254 256 259 262 264 267 269 270 267 263 261 259 257 254 251 249 248 249 250 253 256 259 264 268 272 274 274 274 272 269 266 264 262 260 256 251 244 239 236 236 234 232 230 229 227 225 224 224 225 228 230 232 233 234
228 231 233 234 235 237 239 242 244 245 245 245 246 247 248 251 255 260 265 270 274 276 276 274 270 266 264 262 261 260 259 257 256 256 258 262 268 272 274 274 272 270 267 265 261 256 253 250 248 245 242 237 232 228 225 223 220 217 216 216 217 220 223 226 230 234 236 238 238
231 231 230 229 225 223 228 246 260 259 254 251 250 253 258 263 266 270 274 279 282 283 282 282 281 278 276 274 272 272 271 268 266 266 269 274 279 280 277 272 267 262 258 254 250 246 241 237 235 233 232 229 225 220 215 212 210 209 211 213 217 222 227 230 234 238 242 245 247
217 215 210 200 191 186 195 233 256 258 258 259 258 261 265 269 272 275 279 282 285 288 290 293 291 288 285 284 283 282 280 278 275 276 277 278 279 276 271 264 257 252 247 245 241 238 234 230 228 227 227 225 222 216 210 205 204 206 210 214 220 225 230 235 237 241 245 248 250
191 188 182 180 178 182 194 211 220 225 230 238 245 253 260 264 268 271 274 276 280 282 287 290 288 287 286 283 282 281 280 278 277 276 276 275 272 266 259 253 247 242 239 239 237 234 230 227 225 225 226 226 224 220 213 205 201 204 210 217 221 226 230 233 236 237 239 241 244
168 167 169 174 178 186 193 200 203 204 208 212 219 229 238 245 248 249 250 250 250 249 252 260 270 273 272 268 270 272 271 269 266 265 263 260 255 250 246 243 238 235 235 236 234 231 227 222 221 222 225 227 227 225 222 215 211 213 218 221 222 224 225 227 228 229 231 234 238
150 157 164 172 181 189 193 195 197 198 201 206 212 219 225 228 229 228 225 222 220 220 225 233 242 245 246 245 245 245 246 248 248 245 243 241 239 239 238 234 230 229 231 232 230 225 220 216 214 216 219 222 223 223 222 221 220 222 225 224 224 222 222 223 223 224 226 230 236
136 148 159 170 179 186 191 192 194 196 200 206 213 218 220 219 215 212 209 207 207 208 210 211 212 215 217 218 217 217 220 225 226 226 225 226 226 227 226 222 221 222 226 226 222 217 211 207 207 208 210 211 212 213 214 217 221 224 228 228 227 224 223 223 223 223 225 228 233
124 140 156 169 176 181 185 189 191 194 197 202 208 211 212 208 203 200 198 197 198 199 198 195 194 196 198 200 199 199 202 206 207 208 209 211 214 214 213 211 212 216 219 217 212 206 201 200 202 203 206 207 209 212 216 220 223 227 230 232 233 232 230 229 229 230 231 232 236
113 133 154 168 174 177 180 182 185 188 191 195 195 193 191 190 188 185 183 184 187 186 183 181 182 184 186 189 190 189 190 192 192 191 190 193 197 199 200 200 205 210 212 208 203 197 194 194 197 200 204 208 212 217 222 227 231 233 236 237 238 239 240 242 243 243 242 241 243
102 125 151 166 172 173 174 175 177 181 186 188 183 176 171 171 171 169 168 171 173 172 170 169 171 174 174 175 179 181 182 180 177 174 174 177 181 185 188 190 196 201 204 204 201 196 193 192 195 199 203 208 214 220 225 231 236 241 244 245 244 245 248 251 252 250 247 244 244
99 121 148 163 167 168 168 170 174 178 183 185 179 170 162 158 157 156 157 159 162 164 162 162 164 164 164 164 166 168 171 171 169 166 165 168 172 178 184 190 195 199 204 208 209 206 203 202 203 205 209 213 219 224 230 235 241 246 249 249 248 246 247 248 248 245 243 241 241
112 128 149 162 164 165 167 170 175 179 182 182 177 168 160 155 152 150 150 153 157 159 159 159 158 158 158 159 159 160 162 165 165 163 164 168 177 187 197 206 209 210 213 222 226 225 224 225 225 224 224 225 229 233 237 240 243 245 245 245 241 240 240 240 239 238 237 236 237
126 136 150 162 165 167 170 173 177 181 183 182 179 172 165 159 154 150 149 152 157 158 158 158 157 157 157 158 158 158 159 161 162 165 169 175 185 197 208 215 218 220 225 235 242 243 243 243 242 239 237 235 236 239 241 242 241 240 238 235 233 233 233 234 234 234 233 233 233
132 138 149 160 166 170 172 175 179 183 186 187 185 180 174 167 160 154 152 154 159 162 161 160 159 158 158 158 158 158 157 158 160 165 170 172 174 181 192 203 208 213 221 233 245 249 249 244 239 235 233 232 233 235 237 236 234 231 229 228 226 226 227 229 230 231 231 231 231
140 143 149 157 165 170 174 178 181 185 189 193 193 189 182 174 166 160 157 158 163 167 168 165 162 160 157 156 155 156 155 155 155 155 154 150 144 143 148 161 172 181 194 217 235 242 239 225 216 214 215 217 219 223 225 225 223 220 219 219 218 220 222 225 227 229 229 231 234
155 154 157 161 166 171 176 180 183 187 192 196 197 195 190 182 173 165 161 162 166 172 174 172 168 163 159 153 149 145 141 138 136 133 128 124 120 118 116 114 115 122 132 160 205 219 214 201 193 193 194 195 199 203 207 209 208 208 210 212 215 218 220 224 228 231 234 238 243
Height
1469 1470 1471 1472 1472 1473 1473 1473 1472 1472 1473 1473 1474 1475 1475 1475 1476 1477 1479 1480 1482 1482 1483 1484 1485 1486 1487 1487 1488 1488 1488 1489 1489 1489 1489 1489 1490 1490 1490 1491 1492 1492 1493 1493 1494 1494 1494 1494 1494 1495 1496 1496 1496 1496 1497 1497 1497 1498 1498 1498 1499 1499 1500 1500 1501 1501 1502 1502 1503
1467 1468 1469 1470 1470 1470 1470 1470 1470 1470 1470 1471 1472 1473 1474 1474 1475 1476 1478 1479 1480 1481 1482 1484 1484 1485 1486 1487 1487 1488 1488 1488 1488 1488 1488 1489 1489 1489 1489 1489 1490 1490 1491 1492 1493 1493 1493 1493 1494 1494 1494 1495 1496 1496 1496 1497 1497 1497 1498 1498 1499 1499 1499 1500 1500 1500 1501 1501 1502
1464 1465 1466 1467 1468 1468 1468 1469 1469 1469 1469 1469 1470 1472 1473 1474 1474 1475 1476 1478 1479 1480 1481 1482 1483 1484 1485 1486 1486 1487 1487 1488 1488 1488 1487 1487 1488 1488 1488 1488 1489 1489 1490 1490 1491 1492 1492 1493 1493 1493 1494 1494 1495 1495 1496 1496 1496 1497 1497 1498 1498 1499 1499 1499 1499 1500 1500 1500 1501
1461 1462 1463 1464 1464 1465 1466 1467 1467 1468 1468 1468 1469 1470 1472 1473 1474 1474 1475 1476 1477 1479 1479 1480 1482 1483 1484 1485 1486 1486 1487 1487 1487 1486 1486 1486 1486 1487 1487 1487 1488 1488 1489 1489 1490 1491 1491 1492 1492 1493 1493 1494 1494 1494 1494 1495 1496 1496 1497 1497 1498 1498 1498 1499 1499 1499 1499 1500 1500
1459 1460 1460 1461 1462 1463 1464 1465 1466 1466 1467 1468 1469 1469 1471 1472 1473 1474 1474 1475 1476 1477 1478 1479 1480 1482 1483 1484 1484 1485 1485 1485 1485 1485 1485 1485 1485 1485 1486 1486 1487 1487 1488 1489 1489 1489 1490 1491 1491 1492 1492 1493 1493 1494 1494 1494 1495 1496 1496 1496 1497 1497 1497 1498 1498 1498 1498 1499 1499
1458 1458 1459 1460 1461 1461 1462 1463 1464 1465 1465 1466 1468 1469 1470 1471 1472 1473 1474 1474 1475 1476 1478 1479 1481 1482 1483 1483 1483 1483 1483 1484 1484 1484 1484 1484 1484 1484 1484 1485 1486 1486 1487 1487 1488 1488 1489 1489 1490 1490 1491 1492 1492 1493 1493 1494 1494 1495 1495 1495 1496 1496 1496 1496 1497 1497 1497 1497 1498
1456 1457 1458 1459 1459 1460 1461 1462 1463 1464 1464 1466 1467 1468 1469 1471 1472 1473 1473 1474 1474 1476 1478 1480 1482 1483 1483 1483 1482 1482 1482 1482 1482 1482 1483 1483 1483 1483 1484 1484 1484 1485 1486 1486 1487 1487 1488 1488 1489 1489 1490 1491 1491 1491 1492 1493 1493 1494 1494 1494 1495 1495 1495 1495 1495 1496 1496 1496 1496
1456 1456 1457 1458 1459 1459 1460 1461 1462 1463 1464 1465 1467 1468 1469 1471 1472 1473 1474 1474 1475 1477 1478 1480 1481 1482 1482 1482 1481 1481 1481 1481 1481 1482 1482 1482 1482 1482 1483 1483 1484 1484 1485 1485 1486 1486 1487 1487 1488 1488 1489 1489 1490 1490 1491 1492 1492 1493 1493 1493 1494 1494 1494 1494 1494 1494 1495 1495 1495
1455 1455 1456 1457 1458 1458 1459 1460 1461 1462 1464 1465 1467 1468 1469 1471 1472 1473 1474 1475 1476 1477 1478 1479 1479 1480 1481 1481 1481 1481 1481 1481 1481 1481 1481 1481 1481 1482 1482 1483 1483 1484 1484 1484 1485 1485 1486 1486 1486 1487 1488 1488 1489 1489 1489 1490 1491 1491 1492 1492 1492 1493 1493 1493 1493 1493 1493 1494 1494
1454 1455 1455 1456 1457 1457 1458 1459 1460 1462 1463 1465 1466 1468 1469 1471 1472 1473 1474 1474 1475 1476 1477 1478 1479 1479 1480 1480 1480 1480 1480 1481 1481 1481 1481 1481 1481 1481 1481 1482 1482 1483 1483 1484 1484 1484 1484 1485 1485 1485 1486 1487 1488 1488 1488 1489 1489 1490 1490 1491 1491 1491 1491 1492 1492 1492 1492 1493 1493
1454 1454 1455 1455 1456 1457 1458 1459 1460 1461 1463 1464 1466 1468 1469 1470 1471 1472 1473 1474 1474 1475 1476 1477 1478 1478 1479 1479 1479 1480 1480 1480 1480 1480 1480 1480 1480 1480 1480 1481 1481 1482 1482 1482 1483 1483 1483 1483 1484 1484 1484 1485 1486 1487 1487 1487 1488 1489 1489 1490 1490 1490 1490 1490 1491 1491 1491 1491 1492
1454 1455 1455 1456 1456 1457 1458 1459 1460 1461 1463 1464 1466 1467 1469 1470 1471 1472 1472 1473 1473 1474 1474 1475 1476 1477 1478 1478 1479 1479 1479 1479 1479 1479 1479 1479 1479 1479 1479 1480 1480 1480 1481 1481 1481 1481 1482 1482 1482 1483 1483 1484 1484 1485 1486 1486 1487 1488 1488 1488 1489 1489 1489 1489 1490 1490 1490 1490 1491
1455 1455 1456 1457 1457 1458 1459 1459 1461 1462 1463 1464 1466 1467 1468 1469 1470 1471 1472 1472 1473 1473 1474 1475 1475 1476 1476 1477 1477 1478 1478 1478 1478 1478 1478 1478 1478 1478 1478 1479 1479 1479 1480 1480 1480 1480 1480 1481 1481 1481 1482 1483 1483 1484 1484 1485 1486 1486 1487 1487 1487 1488 1488 1489 1489 1489 1489 1490 1490
1455 1456 1456 1457 1458 1459 1459 1460 1461 1462 1464 1465 1466 1467 1468 1468 1469 1470 1471 1471 1472 1473 1473 1474 1474 1474 1475 1475 1476 1476 1476 1476 1477 1477 1477 1477 1477 1477 1477 1478 1478 1479 1479 1479 1479 1479 1479 1480 1480 1480 1481 1481 1482 1483 1484 1484 1485 1485 1486 1486 1486 1487 1487 1488 1488 1488 1489 1489 1489
1455 1455 1456 1457 1458 1459 1460 1461 1462 1463 1464 1464 1465 1466 1466 1467 1468 1469 1470 1470 1471 1471 1472 1472 1472 1473 1473 1474 1474 1475 1475 1475 1475 1475 1475 1475 1476 1476 1476 1477 1477 1478 1478 1478 1478 1478 1479 1479 1479 1480 1480 1481 1481 1482 1483 1483 1484 1484 1485 1485 1485 1486 1486 1487 1487 1488 1488 1488 1489
1455 1455 1456 1457 1458 1459 1459 1460 1461 1462 1463 1464 1464 1465 1465 1466 1467 1468 1469 1469 1469 1469 1470 1470 1470 1471 1472 1473 1473 1473 1474 1474 1474 1474 1474 1474 1475 1475 1475 1476 1476 1476 1477 1477 1477 1477 1478 1478 1479 1479 1479 1480 1480 1481 1482 1482 1483 1483 1484 1484 1484 1485 1485 1486 1486 1487 1487 1487 1487
1455 1455 1456 1456 1457 1458 1459 1460 1460 1461 1462 1463 1464 1464 1465 1465 1466 1467 1468 1468 1468 1468 1469 1469 1469 1470 1470 1471 1472 1472 1473 1473 1473 1473 1474 1474 1474 1474 1474 1475 1475 1475 1476 1476 1476 1476 1477 1477 1478 1478 1479 1479 1480 1480 1481 1481 1482 1483 1483 1484 1484 1484 1485 1485 1485 1485 1486 1486 1486
1455 1456 1456 1457 1457 1458 1459 1459 1460 1460 1461 1462 1463 1463 1464 1464 1465 1466 1467 1467 1467 1467 1467 1468 1468 1469 1469 1470 1470 1471 1471 1472 1472 1472 1473 1473 1473 1473 1474 1474 1474 1474 1475 1475 1475 1475 1476 1476 1477 1477 1478 1479 1479 1480 1480 1481 1481 1482 1482 1483 1483 1484 1484 1484 1484 1484 1485 1485 1485
1455 1456 1456 1457 1457 1458 1459 1459 1459 1460 1460 1461 1462 1462 1463 1463 1464 1465 1465 1466 1466 1466 1466 1467 1467 1468 1468 1469 1469 1470 1470 1471 1471 1471 1472 1472 1472 1472 1473 1473 1473 1473 1474 1474 1474 1474 1475 1475 1476 1476 1477 1478 1479 1479 1479 1480 1480 1481 1481 1482 1482 1482 1483 1483 1484 1484 1484 1484 1484
1455 1456 1456 1457 1457 1458 1458 1459 1459 1459 1460 1460 1461 1461 1462 1463 1463 1464 1464 1465 1465 1465 1465 1466 1466 1467 1467 1468 1468 1469 1469 1469 1470 1470 1471 1471 1471 1471 1472 1472 1472 1472 1473 1473 1473 1474 1474 1474 1475 1475 1476 1477 1477 1478 1479 1479 1480 1480 1480 1481 1481 1481 1482 1482 1483 1483 1483 1484 1484
1455 1456 1456 1456 1457 1457 1458 1458 1458 1459 1459 1459 1460 1461 1461 1462 1463 1463 1464 1464 1464 1464 1465 1466 1466 1466 1466 1467 1467 1467 1468 1468 1469 1469 1470 1470 1470 1470 1471 1471 1471 1471 1472 1472 1472 1473 1473 1473 1474 1474 1475 1476 1477 1477 1478 1478 1479 1479 1479 1480 1480 1480 1481 1481 1482 1482 1482 1483 1483
1455 1456 1456 1456 1457 1457 1457 1457 1458 1458 1458 1459 1459 1460 1461 1461 1462 1462 1463 1463 1464 1464 1464 1465 1465 1465 1465 1466 1466 1466 1467 1467 1468 1468 1469 1469 1469 1470 1470 1470 1470 1470 1471 1471 1471 1472 1472 1473 1473 1474 1474 1475 1476 1476 1477 1478 1478 1478 1479 1479 1479 1479 1480 1480 1481 1481 1481 1481 1482
1455 1456 1456 1456 1457 1457 1457 1457 1458 1458 1458 1459 1459 1459 1460 1460 1461 1461 1462 1462 1463 1463 1464 1464 1464 1464 1464 1465 1465 1465 1466 1466 1467 1467 1468 1468 1469 1469 1469 1469 1469 1470 1470 1470 1470 1471 1471 1472 1473 1473 1474 1474 1475 1476 1476 1477 1477 1478 1478 1478 1478 1479 1479 1479 1480 1480 1480 1480 1481
1455 1455 1456 1456 1456 1457 1457 1457 1458 1458 1458 1458 1459 1459 1459 1460 1460 1460 1461 1461 1462 1462 1463 1463 1464 1464 1464 1464 1464 1465 1465 1465 1466 1466 1467 1467 1468 1468 1468 1469 1469 1469 1469 1470 1470 1470 1471 1471 1472 1473 1473 1474 1474 1475 1475 1476 1477 1477 1477 1477 1478 1478 1479 1479 1479 1479 1480 1480 1480
1454 1455 1455 1455 1456 1456 1457 1457 1457 1458 1458 1458 1458 1459 1459 1459 1459 1460 1460 1460 1461 1462 1462 1463 1463 1463 1464 1464 1464 1464 1464 1465 1465 1465 1466 1467 1467 1467 1468 1468 1469 1469 1469 1469 1470 1470 1470 1471 1472 1472 1473 1473 1474 1474 1475 1475 1476 1476 1477 1477 1477 1478 1478 1479 1479 1479 1479 1479 1480
1454 1454 1455 1455 1455 1456 1456 1456 1457 1457 1457 1458 1458 1458 1459 1459 1459 1459 1459 1460 1461 1461 1462 1462 1462 1463 1463 1463 1463 1464 1464 1464 1464 1465 1465 1466 1466 1467 1467 1467 1468 1468 1469 1469 1469 1470 1470 1471 1471 1472 1472 1473 1473 1474 1474 1474 1475 1475 1476 1476 1477 1478 1478 1478 1478 1478 1479 1479 1479
1454 1454 1454 1454 1455 1455 1455 1456 1456 1457 1457 1457 1458 1458 1458 1458 1459 1459 1459 1460 1460 1460 1461 1461 1461 1462 1462 1463 1463 1463 1463 1464 1464 1464 1465 1465 1466 1466 1466 1467 1467 1468 1468 1469 1469 1470 1470 1471 1471 1472 1472 1473 1473 1473 1474 1474 1474 1475 1475 1476 1476 1477 1477 1477 1477 1477 1478 1478 1479
1453 1454 1454 1454 1454 1455 1455 1455 1456 1456 1457 1457 1457 1458 1458 1458 1459 1459 1459 1459 1460 1460 1460 1461 1461 1461 1462 1462 1462 1463 1463 1463 1464 1464 1464 1465 1465 1465 1466 1466 1467 1467 1468 1468 1469 1469 1470 1470 1471 1471 1472 1472 1473 1473 1473 1473 1474 1474 1474 1475 1475 1476 1476 1476 1476 1477 1477 1478 1478
1453 1453 1454 1454 1454 1454 1455 1455 1456 1456 1456 1457 1457 1457 1457 1458 1458 1459 1459 1459 1460 1460 1460 1461 1461 1461 1462 1462 1462 1462 1463 1463 1463 1464 1464 1464 1465 1465 1466 1466 1466 1467 1467 1468 1468 1469 1469 1470 1470 1471 1471 1472 1472 1472 1472 1473 1473 1473 1474 1474 1474 1475 1475 1475 1476 1476 1477 1477 1478
1453 1453 1454 1454 1454 1454 1455 1455 1455 1455 1456 1456 1456 1456 1457 1457 1458 1458 1459 1459 1459 1459 1460 1460 1461 1461 1461 1461 1462 1462 1462 1462 1463 1463 1464 1464 1464 1465 1465 1465 1466 1466 1467 1467 1468 1468 1469 1469 1469 1470 1470 1471 1471 1472 1472 1472 1472 1473 1473 1474 1474 1475 1475 1475 1475 1476 1476 1477 1477
1453 1453 1453 1454 1454 1454 1455 1455 1455 1455 1455 1455 1455 1456 1456 1457 1457 1458 1458 1458 1459 1459 1459 1460 1460 1460 1460 1461 1461 1461 1462 1462 1462 1463 1463 1464 1464 1464 1465 1465 1465 1466 1466 1467 1467 1468 1468 1469 1469 1469 1470 1470 1471 1471 1471 1472 1472 1473 1474 1474 1474 1474 1475 1475 1475 1476 1476 1477 1477
1453 1453 1453 1454 1454 1454 1454 1455 1455 1455 1455 1455 1456 1456 1456 1457 1457 1458 1458 1458 1459 1459 1459 1459 1459 1460 1460 1460 1461 1461 1461 1462 1462 1463 1463 1464 1464 1464 1464 1465 1465 1465 1466 1466 1467 1467 1468 1468 1469 1469 1469 1470 1470 1470 1471 1472 1472 1473 1474 1474 1474 1474 1475 1475 1475 1476 1476 1476 1477
1453 1453 1453 1454 1454 1454 1454 1455 1455 1455 1455 1456 1456 1456 1457 1457 1458 1458 1458 1459 1459 1459 1459 1459 1460 1460 1460 1460 1461 1461 1462 1462 1462 1463 1463 1464 1464 1464 1464 1464 1465 1465 1465 1465 1466 1467 1467 1468 1468 1469 1469 1469 1470 1470 1471 1471 1472 1473 1473 1474 1474 1474 1474 1475 1475 1475 1476 1476 1476
1454 1454 1454 1454 1454 1454 1455 1455 1455 1455 1456 1456 1456 1457 1458 1458 1458 1458 1459 1459 1459 1459 1459 1460 1460 1460 1461 1461 1462 1462 1462 1463 1463 1463 1463 1464 1464 1464 1464 1464 1464 1464 1465 1465 1466 1466 1467 1467 1468 1468 1469 1469 1469 1470 1470 1471 1471 1472 1472 1473 1473 1474 1474 1474 1474 1475 1475 1476 1476
1454 1454 1454 1455 1455 1455 1455 1456 1456 1456 1456 1457 1457 1458 1458 1458 1458 1459 1459 1459 1459 1459 1460 1460 1461 1461 1461 1462 1462 1463 1463 1463 1463 1464 1464 1464 1464 1464 1464 1464 1464 1464 1465 1465 1465 1466 1467 1467 1468 1468 1469 1469 1469 1469 1470 1470 1471 1471 1471 1472 1472 1473 1473 1474 1474 1474 1475 1475 1475
1455 1455 1455 1456 1456 1456 1456 1456 1457 1457 1457 1457 1457 1458 1458 1459 1459 1459 1459 1459 1460 1460 1460 1461 1461 1462 1462 1462 1463 1463 1463 1464 1464 1464 1464 1464 1464 1464 1464 1464 1464 1464 1465 1465 1465 1466 1466 1467 1467 1468 1468 1469 1469 1469 1469 1470 1470 1470 1471 1471 1472 1472 1473 1473 1474 1474 1474 1474 1474
1455 1456 1456 1456 1457 1457 1457 1457 1457 1457 1457 1458 1458 1458 1459 1459 1459 1459 1460 1460 1460 1461 1461 1461 1462 1462 1462 1463 1463 1463 1464 1464 1464 1464 1464 1464 1464 1465 1465 1465 1465 1465 1465 1465 1465 1466 1466 1467 1467 1467 1468 1468 1469 1469 1469 1469 1469 1470 1470 1471 1471 1472 1473 1473 1473 1474 1474 1474 1474
1456 1456 1457 1457 1457 1457 1458 1458 1458 1458 1458 1458 1458 1459 1459 1459 1460 1460 1460 1461 1461 1461 1462 1462 1463 1463 1463 1463 1463 1464 1464 1464 1464 1464 1464 1464 1465 1465 1465 1465 1465 1465 1465 1465 1465 1466 1466 1466 1467 1467 1467 1468 1468 1468 1469 1469 1469 1470 1470 1471 1471 1472 1472 1473 1473 1473 1473 1473 1474
1456 1457 1457 1457 1458 1458 1458 1458 1458 1459 1459 1459 1459 1459 1459 1460 1460 1460 1461 1461 1462 1462 1463 1463 1463 1463 1464 1464 1464 1464 1464 1464 1464 1464 1465 1465 1465 1465 1465 1465 1465 1465 1465 1465 1465 1466 1466 1466 1466 1467 1467 1467 1468 1468 1468 1469 1469 1470 1470 1471 1471 1472 1472 1472 1473 1473 1473 1473 1474
1457 1457 1457 1458 1458 1458 1459 1459 1459 1459 1459 1459 1459 1459 1460 1460 1460 1461 1461 1462 1462 1463 1463 1463 1464 1464 1464 1464 1465 1465 1465 1465 1465 1465 1465 1465 1465 1465 1465 1465 1465 1465 1465 1465 1465 1465 1466 1466 1466 1467 1467 1467 1467 1468 1468 1469 1469 1469 1470 1471 1471 1472 1472 1472 1473 1473 1473 1473 1474
1457 1457 1458 1458 1458 1459 1459 1459 1459 1459 1459 1460 1460 1460 1460 1461 1461 1461 1461 1462 1462 1463 1463 1464 1464 1464 1464 1465 1465 1465 1465 1465 1465 1465 1465 1465 1465 1465 1465 1466 1465 1465 1465 1465 1465 1465 1465 1466 1466 1467 1467 1467 1467 1468 1468 1469 1469 1469 1470 1471 1471 1472 1472 1472 1473 1473 1473 1473 1473